Wind_Speed
47 46 45 47 48 48 49 50 50 50 48 46 44 44 45 46 47 47 47 48 49 50 51 51 52 53 53 54 54 55 57 59 61 62 63 64 65 66 68 69 71 72
42 44 47 50 50 49 51 51 50 47 44 42 42 42 43 45 46 46 47 48 49 50 52 52 53 54 54 55 56 57 58 60 61 62 63 64 66 67 69 70 72 73
38 42 46 48 48 49 49 48 46 44 42 41 40 41 42 43 44 45 47 48 49 51 52 53 53 54 54 55 56 57 58 59 61 62 63 65 67 68 70 71 73 74
39 41 43 44 44 45 44 43 43 42 41 40 40 41 42 43 44 45 46 47 49 50 51 52 52 53 54 55 56 57 59 60 62 63 65 66 68 69 71 72 73 73
40 41 42 43 43 42 42 42 42 42 41 40 40 41 42 42 43 44 46 47 48 49 50 51 52 53 54 56 57 58 60 61 63 64 66 68 69 70 71 71 71 72
41 41 41 42 42 42 42 42 42 43 42 41 41 42 43 44 45 46 47 48 49 51 52 53 54 54 55 56 58 59 61 63 64 65 67 68 68 69 69 69 70 72
42 42 42 42 42 43 43 43 44 44 44 44 44 45 46 47 47 49 49 50 51 52 53 53 54 55 56 58 59 61 62 64 65 66 66 66 67 67 68 70 72 74
43 44 44 44 44 45 44 44 44 45 45 46 47 47 48 49 49 50 50 51 52 52 53 54 56 57 58 60 61 62 63 64 64 64 64 65 66 67 69 72 74 75
45 45 46 46 46 46 46 45 46 46 47 47 48 49 49 49 49 50 51 52 53 54 55 56 58 59 60 61 61 62 62 62 62 63 64 65 67 69 71 73 74 75
45 46 46 47 47 47 47 47 48 48 49 49 49 50 50 50 51 52 53 54 55 56 57 58 59 59 60 59 59 60 60 61 62 63 65 67 69 71 73 73 74 74
46 46 46 47 47 47 48 48 49 49 50 50 50 51 51 52 53 54 54 55 56 56 57 57 57 57 57 57 58 59 60 61 63 64 66 68 71 72 73 73 73 73
46 46 46 47 47 48 48 49 50 50 51 51 51 52 52 53 53 54 54 55 55 55 55 55 55 55 56 57 59 60 61 63 64 66 68 70 71 72 72 72 72 73
46 47 47 48 48 48 49 49 50 50 51 51 51 51 52 52 53 53 53 52 52 52 53 54 54 56 57 59 60 61 63 64 66 68 69 70 70 70 71 72 73 74
45 46 46 46 47 47 48 48 49 50 50 50 50 50 50 50 50 50 50 51 51 52 53 54 56 57 59 60 61 62 64 66 67 68 69 69 69 69 70 72 74 76
42 43 43 44 44 45 46 47 47 48 48 48 48 48 48 48 48 49 50 51 52 53 55 56 57 58 59 60 62 64 65 66 67 67 67 68 68 69 71 73 75 77
40 41 41 42 42 44 45 45 46 47 47 46 47 47 48 48 49 49 50 52 53 55 56 57 58 59 60 61 63 64 65 66 66 66 67 68 69 71 72 74 76 77
39 39 39 39 40 41 42 42 44 46 46 46 47 49 49 49 49 50 51 53 54 56 56 57 59 60 61 62 63 64 65 65 65 66 67 68 70 72 73 75 76 76
36 35 36 37 38 38 40 43 45 48 50 50 51 52 51 49 50 51 52 54 55 56 57 58 59 60 61 62 63 63 63 64 65 66 68 69 71 72 74 75 75 76
33 34 35 36 37 39 42 44 44 47 51 53 55 56 53 51 52 53 54 55 56 57 58 58 59 60 61 61 62 62 63 64 66 67 68 69 71 72 73 74 75 75
34 35 36 38 40 42 42 39 37 41 47 51 56 60 56 54 55 56 55 56 56 57 57 58 59 60 60 61 62 63 64 65 66 67 68 70 71 71 72 73 74 75
36 38 40 42 42 40 40 39 37 41 47 53 59 61 59 57 57 57 56 56 56 57 57 58 59 60 61 61 62 63 64 65 66 67 68 69 70 71 72 72 73 74
37 39 40 41 42 41 42 42 40 42 49 58 62 62 60 59 59 57 56 56 56 57 58 59 60 61 61 62 62 63 64 65 66 67 67 68 69 70 71 72 72 73
38 40 40 42 45 46 46 46 46 48 54 61 63 61 60 60 59 56 56 56 57 58 59 60 61 61 62 62 62 63 64 64 65 66 67 68 69 70 70 71 72 72
40 42 43 44 46 48 49 50 51 52 55 58 59 59 60 59 57 56 56 57 58 59 60 61 61 61 62 62 62 62 63 64 65 66 67 68 68 69 70 70 71 72
43 44 46 47 48 50 52 53 53 53 54 56 57 58 58 57 56 55 56 58 58 59 60 61 61 61 61 61 61 62 62 63 65 65 66 67 68 68 69 70 71 71
45 46 47 49 50 52 54 55 55 55 55 55 56 56 56 55 55 56 57 58 58 59 60 60 60 60 60 61 62 62 62 63 64 65 66 67 67 68 69 69 70 70
Wind_Direction
244 245 249 253 257 263 267 270 274 279 281 282 282 281 280 279 278 277 277 278 280 281 282 284 285 286 287 288 288 288 287 288 289 291 293 295 296 297 298 298 299 299
246 245 249 254 258 262 266 270 275 279 282 282 281 281 280 279 280 280 281 282 283 284 285 286 286 287 288 288 288 289 289 290 292 294 296 297 298 298 298 298 298 298
249 248 251 255 258 262 267 272 277 280 282 283 284 284 283 283 283 284 284 285 285 285 285 285 286 287 288 289 290 291 293 294 296 297 298 297 297 297 298 298 298 299
254 254 256 259 262 266 271 275 278 280 282 284 285 285 284 285 285 285 285 285 284 285 285 286 287 289 290 292 293 295 296 296 297 297 297 297 297 298 298 298 299 300
258 259 261 263 266 270 273 275 278 279 281 283 283 283 284 284 284 284 284 284 285 286 287 288 290 292 293 295 296 296 296 296 297 297 297 297 297 298 298 299 300 302
260 262 263 265 268 270 273 275 278 279 281 282 282 282 283 283 283 284 285 286 287 288 290 291 293 294 295 295 295 296 296 296 297 297 297 297 298 299 300 301 303 303
262 264 266 268 270 272 274 276 278 279 280 281 281 282 283 284 285 286 287 288 289 290 292 293 294 294 294 295 295 296 296 296 296 297 297 298 299 301 302 303 304 305
263 266 268 270 272 274 276 278 279 280 281 282 283 284 285 286 287 288 289 290 291 292 292 293 294 294 295 295 296 296 296 296 297 298 299 300 301 303 304 304 305 306
264 265 267 269 272 274 276 278 279 281 282 283 284 285 287 287 288 289 290 290 291 292 292 293 294 294 295 295 295 296 296 297 298 300 301 302 303 304 305 306 306 307
265 266 267 269 272 274 276 278 279 281 283 284 285 286 287 288 288 289 289 290 291 292 292 293 294 294 295 296 296 297 298 299 301 302 303 304 304 305 306 306 307 307
266 268 269 271 272 274 276 278 280 281 283 284 285 286 287 287 288 289 290 291 292 292 293 294 295 296 297 297 298 299 301 302 303 304 305 305 306 306 306 306 307 307
267 269 270 272 274 275 278 279 281 282 283 284 285 286 287 288 289 290 291 292 293 294 295 296 297 298 299 299 301 302 303 304 305 305 305 306 306 306 306 307 308 308
269 270 271 273 275 277 278 280 281 282 283 284 285 287 288 288 290 291 292 294 294 295 296 298 299 300 301 302 303 304 304 305 305 305 305 306 306 306 307 308 309 309
270 271 273 275 276 278 279 280 281 282 284 285 286 287 288 288 290 292 293 295 296 297 298 299 301 302 303 304 304 304 304 305 305 305 306 306 307 308 309 309 310 310
272 274 275 276 278 279 281 282 283 284 285 286 287 287 287 288 290 292 295 296 297 298 299 300 301 303 303 303 303 303 304 305 305 306 307 307 308 309 309 310 310 310
274 275 277 278 280 281 282 283 284 284 285 286 286 286 287 289 291 294 296 297 298 299 300 301 302 302 302 302 303 304 305 305 306 307 308 309 309 310 310 310 310 311
274 276 278 279 280 281 282 283 284 285 285 285 285 285 287 289 293 295 297 298 299 300 301 301 301 301 301 302 304 305 306 307 308 308 309 309 310 310 310 310 311 311
274 275 277 279 280 281 284 286 288 288 286 285 285 285 287 291 294 296 298 299 300 300 300 300 300 301 303 304 306 306 307 308 308 308 309 309 310 310 310 311 312 312
273 275 278 280 280 282 287 291 294 293 291 290 288 288 290 293 295 296 298 299 299 299 299 300 302 303 305 306 307 307 308 308 308 308 309 309 310 310 311 312 312 313
271 274 278 280 281 284 287 289 289 288 288 287 287 288 292 294 294 295 297 298 298 299 301 302 304 305 306 307 307 308 308 308 308 308 309 309 310 311 312 313 313 314
271 273 276 278 281 282 283 282 280 279 278 278 280 286 292 292 293 296 298 298 300 302 303 304 305 306 307 307 307 307 307 308 308 308 309 310 311 312 312 313 314 314
274 273 274 274 275 276 276 275 274 272 271 274 280 287 290 292 295 299 300 301 303 304 304 305 305 306 306 306 307 307 307 307 308 309 310 311 312 312 313 314 314 316
271 270 269 269 271 273 272 269 267 267 270 275 282 287 290 293 297 300 302 302 303 303 303 304 304 305 305 306 306 306 307 307 308 309 310 311 312 313 314 314 315 317
267 267 268 269 270 271 270 269 270 271 273 276 280 285 289 293 298 299 300 300 300 301 302 302 303 304 304 305 306 306 307 308 309 310 311 312 313 314 314 315 316 318
267 269 271 271 271 271 272 273 274 275 275 276 280 285 289 293 296 297 297 298 299 300 301 301 302 303 304 305 306 306 308 308 309 310 312 313 314 314 315 316 317 318
269 270 271 272 272 272 273 275 276 278 279 281 284 288 291 293 295 295 295 296 298 299 299 300 302 303 304 305 306 307 308 309 310 311 312 313 314 315 315 317 318 318
Height
10710 10710 10705 10702 10702 10702 10701 10701 10700 10701 10701 10700 10699 10698 10696 10695 10694 10694 10693 10691 10691 10690 10689 10688 10687 10686 10685 10684 10682 10680 10677 10674 10671 10668 10665 10662 10658 10655 10651 10648 10644 10641
10706 10705 10701 10699 10699 10698 10697 10697 10697 10697 10697 10696 10695 10693 10691 10690 10689 10688 10687 10687 10686 10685 10684 10683 10682 10681 10680 10678 10676 10673 10670 10667 10664 10661 10658 10655 10651 10648 10644 10641 10637 10633
10700 10699 10697 10696 10696 10695 10694 10693 10693 10692 10692 10691 10690 10688 10686 10685 10684 10683 10683 10682 10681 10680 10679 10678 10677 10676 10674 10672 10670 10667 10663 10660 10657 10654 10651 10648 10644 10641 10637 10633 10630 10626
10693 10693 10693 10692 10691 10690 10689 10688 10688 10687 10687 10686 10685 10683 10681 10680 10679 10679 10678 10677 10676 10675 10674 10673 10671 10670 10668 10666 10663 10660 10656 10653 10651 10648 10645 10641 10637 10634 10630 10626 10622 10617
10687 10687 10687 10687 10686 10685 10685 10684 10683 10683 10682 10681 10679 10678 10677 10676 10675 10674 10673 10672 10671 10670 10668 10667 10666 10664 10662 10659 10656 10653 10650 10647 10644 10641 10637 10634 10630 10626 10622 10618 10614 10609
10682 10682 10681 10681 10681 10680 10680 10679 10679 10678 10677 10676 10675 10673 10672 10671 10670 10669 10668 10667 10666 10664 10662 10661 10659 10657 10655 10653 10650 10647 10644 10640 10637 10634 10630 10626 10622 10618 10614 10610 10605 10601
10676 10676 10676 10675 10675 10675 10675 10675 10674 10673 10672 10671 10670 10668 10667 10666 10665 10664 10663 10662 10660 10658 10656 10655 10653 10651 10649 10647 10644 10640 10637 10634 10630 10627 10623 10619 10615 10610 10606 10602 10597 10593
10670 10670 10670 10670 10670 10670 10669 10669 10669 10668 10667 10666 10664 10663 10662 10661 10659 10658 10657 10656 10654 10652 10650 10649 10647 10645 10643 10640 10637 10634 10631 10627 10623 10620 10616 10612 10607 10603 10598 10594 10589 10584
10665 10665 10665 10665 10664 10664 10664 10664 10663 10662 10661 10660 10659 10657 10656 10654 10653 10652 10651 10650 10648 10646 10645 10643 10641 10639 10636 10634 10630 10627 10624 10620 10616 10613 10609 10604 10600 10595 10591 10586 10581 10576
10659 10659 10659 10659 10659 10659 10658 10658 10658 10657 10656 10654 10653 10652 10650 10649 10647 10646 10645 10644 10642 10641 10639 10637 10635 10632 10630 10627 10623 10620 10616 10613 10609 10605 10601 10597 10592 10588 10583 10578 10574 10569
10653 10653 10653 10653 10653 10653 10652 10652 10651 10651 10649 10648 10647 10646 10644 10643 10642 10640 10639 10638 10636 10634 10633 10631 10628 10626 10623 10619 10616 10613 10609 10605 10602 10598 10594 10589 10585 10580 10575 10571 10567 10562
10647 10647 10647 10647 10646 10646 10646 10646 10645 10644 10643 10642 10641 10640 10638 10637 10636 10634 10633 10632 10630 10628 10626 10624 10621 10619 10615 10612 10609 10605 10601 10598 10594 10590 10586 10582 10577 10573 10568 10563 10559 10554
10640 10640 10641 10641 10640 10640 10640 10639 10639 10638 10637 10636 10635 10634 10632 10631 10629 10628 10627 10625 10624 10622 10619 10617 10615 10611 10608 10605 10601 10598 10594 10590 10587 10583 10579 10575 10570 10566 10560 10555 10550 10546
10634 10634 10635 10635 10634 10634 10634 10633 10632 10631 10631 10630 10629 10628 10626 10625 10624 10623 10621 10619 10617 10615 10613 10610 10608 10605 10601 10598 10594 10591 10587 10584 10580 10576 10572 10568 10563 10559 10553 10548 10543 10537
10628 10628 10629 10629 10629 10628 10627 10627 10626 10625 10624 10624 10623 10621 10620 10619 10618 10617 10615 10613 10611 10609 10606 10604 10601 10598 10595 10592 10588 10584 10581 10577 10573 10569 10565 10560 10556 10552 10546 10541 10535 10530
10622 10623 10623 10623 10623 10622 10622 10621 10619 10618 10618 10617 10616 10615 10614 10613 10613 10611 10609 10607 10605 10602 10600 10597 10594 10592 10589 10585 10582 10578 10574 10571 10567 10562 10558 10553 10548 10544 10539 10533 10528 10523
10618 10618 10618 10618 10618 10617 10616 10615 10613 10612 10611 10611 10610 10608 10608 10608 10607 10605 10603 10601 10599 10596 10594 10591 10588 10585 10583 10580 10576 10572 10568 10564 10560 10555 10551 10546 10541 10537 10532 10526 10521 10515
10614 10614 10613 10613 10612 10611 10610 10609 10607 10605 10603 10603 10603 10602 10602 10603 10601 10599 10597 10595 10593 10591 10588 10585 10582 10579 10576 10573 10570 10566 10562 10558 10554 10549 10544 10540 10535 10530 10525 10519 10514 10508
10610 10609 10609 10608 10607 10607 10605 10603 10602 10598 10595 10595 10595 10595 10596 10596 10595 10594 10592 10590 10587 10585 10582 10579 10576 10573 10570 10567 10563 10559 10556 10552 10547 10543 10538 10533 10528 10523 10518 10513 10507 10501
10606 10606 10605 10604 10603 10603 10601 10600 10599 10596 10592 10589 10588 10587 10589 10590 10589 10588 10587 10584 10582 10579 10576 10573 10570 10567 10564 10561 10557 10553 10549 10545 10541 10536 10532 10527 10522 10517 10512 10506 10500 10495
10603 10602 10601 10600 10599 10598 10596 10596 10596 10594 10590 10585 10583 10582 10584 10584 10583 10583 10581 10578 10575 10572 10569 10566 10563 10561 10558 10555 10551 10547 10543 10539 10535 10530 10526 10521 10517 10511 10506 10500 10494 10488
10598 10598 10597 10596 10594 10594 10593 10592 10591 10589 10584 10579 10577 10577 10578 10577 10577 10576 10573 10571 10568 10566 10563 10560 10557 10555 10552 10549 10545 10541 10537 10533 10529 10525 10520 10516 10511 10506 10500 10494 10488 10482
10593 10593 10593 10592 10590 10589 10589 10587 10585 10583 10578 10574 10572 10572 10571 10571 10570 10569 10566 10564 10562 10560 10557 10554 10551 10548 10545 10543 10539 10535 10531 10527 10523 10519 10515 10510 10505 10500 10494 10488 10482 10476
10588 10587 10588 10587 10585 10583 10582 10580 10580 10578 10575 10571 10569 10568 10567 10566 10565 10563 10561 10559 10557 10554 10552 10548 10545 10543 10539 10536 10533 10530 10526 10522 10518 10513 10509 10504 10499 10494 10488 10482 10476 10470
10583 10583 10582 10581 10579 10577 10574 10574 10573 10572 10570 10569 10567 10565 10564 10562 10560 10558 10556 10554 10552 10549 10545 10542 10539 10536 10533 10530 10527 10524 10520 10516 10512 10508 10503 10498 10493 10488 10482 10476 10471 10465
10578 10577 10576 10575 10573 10571 10569 10567 10567 10566 10565 10564 10562 10561 10559 10557 10555 10553 10550 10548 10546 10543 10539 10536 10534 10531 10527 10524 10521 10518 10514 10511 10507 10502 10498 10493 10488 10482 10476 10471 10465 10459